Regional Weather Roundup
Issued by NWS

Home | Current Version | Previous Version | Graphics & Text | Print | Product List | Glossary On
Versions: 1 2 3 4 5 6 7 8 9 10 11 12 13 14 15 16 17 18 19 20 21 22 23 24 25 26 27 28 29 30 31 32 33 34 35 36 37 38 39 40 41 42 43 44 45 46 47 48 49 50
000
ASUS43 KOAX 230502
RWRNE

WEATHER ROUNDUP FOR NEBRASKA
NATIONAL WEATHER SERVICE OMAHA NE
1200 AM CDT TUE SEP 23 2014

NOTES: SATELLITE DATA IS BEING USED TO AUGMENT CLOUD COVER ABOVE
       12000 FEET.
       "FAIR" INDICATES FEW OR NO CLOUDS BELOW 12,000 FEET WITH NO
       SIGNIFICANT WEATHER AND/OR OBSTRUCTIONS TO VISIBILITY.

  * THESE STATIONS DO NOT REPORT WEATHER SUCH AS RAIN...SNOW OR FOG.

NEZ001>004-019>022-054>056-230600-
NEBRASKA PANHANDLE

CITY           SKY/WX    TMP DP  RH WIND       PRES   REMARKS
SCOTTSBLUFF    PTCLDY    56  54  93 E7        30.03F
ALLIANCE       PTCLDY    54  52  93 S9        30.02F
CHADRON        CLEAR     62  56  80 CALM      29.97S
KIMBALL        MOCLDY    56  55  93 SW6       30.08S
SIDNEY         MOCLDY    59  54  83 S7        30.07F
$$

NEZ057>060-069>072-079>082-230600-
SOUTHWEST NEBRASKA

CITY           SKY/WX    TMP DP  RH WIND       PRES   REMARKS
NORTH PLATTE   CLOUDY    59  51  75 SE12      30.08R
IMPERIAL       CLOUDY    61  54  77 S8        30.05F
LEXINGTON      CLOUDY    59  54  83 SE12      30.11S
MCCOOK         RAIN      60  56  86 S26G37    30.06F FOG
OGALLALA       CLOUDY    61  55  82 S3        30.07R
$$

NEZ005>010-023>029-035>040-094-230600-
NORTH CENTRAL NEBRASKA

CITY           SKY/WX    TMP DP  RH WIND       PRES   REMARKS
VALENTINE      CLOUDY    61  54  77 S18G29    30.03S
AINSWORTH      CLOUDY    58  54  84 S18       30.06F
BROKEN BOW     CLOUDY    58  54  86 SE8       30.10F
O`NEILL        LGT RAIN  62  56  81 S13       30.12F
ORD            LGT RAIN  58  54  86 S9        30.11F
THEDFORD       MOCLDY    59  53  80 SE13      30.07F
$$

NEZ041-046>049-061>064-073>077-083>087-230600-
SOUTH CENTRAL NEBRASKA

CITY           SKY/WX    TMP DP  RH WIND       PRES   REMARKS
GRAND ISLAND   LGT RAIN  60  54  80 CALM      30.16F
AURORA         CLOUDY    63  48  58 S5        30.17F
HASTINGS       CLOUDY    63  47  55 S9        30.15F
HEBRON         CLOUDY    62  49  62 S6        30.16F
HOLDREGE       RAIN      58  54  87 CALM      30.17R
KEARNEY *      CLOUDY    57  52  82 SE7       30.15S
$$

NEZ011>018-030>034-042>045-230600-
NORTHEAST NEBRASKA

CITY           SKY/WX    TMP DP  RH WIND       PRES   REMARKS
NORFOLK        CLOUDY    62  51  67 S7        30.15S
ALBION         LGT RAIN  59  52  78 SE7       30.15F
BLAIR          CLOUDY    62  50  66 S6        30.18S
COLUMBUS *     CLOUDY    63  48  59 S6        30.17F
FREMONT        CLOUDY    64  50  61 SE5       30.18S
TEKAMAH        CLOUDY    57  52  83 CALM      30.17F
WAYNE          CLOUDY    62  51  67 S10       30.16S
$$

NEZ050>053-065>068-078-088>093-230600-
SOUTHEAST NEBRASKA

CITY           SKY/WX    TMP DP  RH WIND       PRES   REMARKS
LINCOLN        CLOUDY    63  51  65 S9        30.18F
OMAHA EPPLEY   CLOUDY    62  51  67 S7        30.19S
BEATRICE       CLOUDY    61  50  66 SE7       30.18F
FALLS CITY     MOCLDY    56  52  86 S5        30.21R
NEBRASKA CITY    N/A     59  48  67 S6        30.20S
PLATTSMOUTH    CLOUDY    60  49  67 SE6       30.19S
$$

NEZ044-045-051>053-067-230600-
OMAHA AREA

CITY           SKY/WX    TMP DP  RH WIND       PRES   REMARKS
OMAHA EPPLEY   CLOUDY    62  51  67 S7        30.19S
BLAIR          CLOUDY    62  50  66 S6        30.18S
FREMONT        CLOUDY    64  50  61 SE5       30.18S
MILLARD        CLOUDY    62  52  70 SE5       30.18F
OFFUTT AFB     CLOUDY    59  56  90 SE7       30.19S
PLATTSMOUTH    CLOUDY    60  49  67 SE6       30.19S
WAHOO          FAIR      60  51  70 S5        30.17F
$$


USA.gov is the U.S. government's official web portal to all federal, state and local government web resources and services.